Regional Weather Roundup
Issued by NWS Kansas City/Pleasant Hill, MO

Home | Current Version | Previous Version | Text Only | Print | Product List | Glossary On
Versions: 1 2 3 4 5 6 7 8 9 10 11 12 13 14 15 16 17 18 19 20 21 22 23 24 25 26 27 28 29 30 31 32 33 34 35 36 37 38 39 40 41 42 43 44 45 46 47 48 49 50
162
ASUS43 KEAX 211210
RWREAX

WEATHER ROUNDUP FOR EASTERN KANSAS AND NORTHWEST MISSOURI
NATIONAL WEATHER SERVICE KANSAS CITY/PLEASANT HILL MO
700 AM CDT SAT APR 21 2018

KSZ040-057-103>105-MOZ028-029-037-043-211300-
...KANSAS CITY METROPOLITAN AREA...

CITY           SKY/WX    TMP DP  RH WIND       PRES   REMARKS
K.C. INTL      CLOUDY    48  26  42 E10       30.25S
6HR MIN TEMP:  48; 6HR MAX TEMP:  53;

K.C. DOWNTOWN  CLOUDY    51  27  39 E7        30.24F
6HR MIN TEMP:  51; 6HR MAX TEMP:  55;

LEES SUMMIT    CLOUDY    49  28  44 E9        30.25F
6HR MIN TEMP:  49; 6HR MAX TEMP:  54;

OLATHE - IXD   CLOUDY    51  27  39 E9        30.23S
6HR MIN TEMP:  51; 6HR MAX TEMP:  55;

OLATHE - OJC   CLOUDY    49  28  44 E10       30.22F
6HR MIN TEMP:  48; 6HR MAX TEMP:  53;

LAWRENCE       CLOUDY    50  29  44 N6        30.23F

$$

MOZ001>008-011>017-020>025-030>033-038>040-044>046-053-054-211300-
...NORTHERN AND CENTRAL MISSOURI...

CITY           SKY/WX    TMP DP  RH WIND       PRES   REMARKS
ST. JOSEPH     CLOUDY    50  26  39 SE12      30.27S
6HR MIN TEMP:  50; 6HR MAX TEMP:  54;

MOSBY          CLOUDY    50  25  37 E7        30.27F
WARRENSBURG    CLOUDY    45  28  53 NE6       30.25F
WHITEMAN AFB   CLOUDY    47  28  47 E7        30.22R
6HR MIN TEMP:  47; 6HR MAX TEMP:  53;

CLINTON        CLOUDY    46  30  53 E7        30.24F
SEDALIA        CLOUDY    48  30  49 E3        30.28R
6HR MIN TEMP:  47; 6HR MAX TEMP:  54;

WARSAW         NOT AVBL
CHILLICOTHE      N/A     44  29  55 CALM      30.33R
6HR MIN TEMP:  44; 6HR MAX TEMP:  52;

KIRKSVILLE     CLOUDY    43  31  62 NE7       30.34R
6HR MIN TEMP:  42; 6HR MAX TEMP:  50;


$$

MOZ041-047>049-056>058-063>065-088>090-097-211300-
...EASTERN AND SOUTHERN MISSOURI...

CITY           SKY/WX    TMP DP  RH WIND       PRES   REMARKS
ST. LOUIS INTL MOCLDY    43  30  60 E8        30.34S
6HR MIN TEMP:  40; 6HR MAX TEMP:  48;

SPIRIT OF STL  PTCLDY    37  32  82 CALM      30.32F
COLUMBIA       CLOUDY    46  26  45 E7        30.29R
JEFFERSON CITY CLOUDY    46  28  49 SE6       30.30R
ROLLA          CLOUDY    44  27  51 E8        30.28R
OSAGE BEACH    CLOUDY    47  27  45 E7        30.28R
SPRINGFIELD    CLOUDY    52  29  41 SE9       30.20F
BRANSON        MOCLDY    46  28  49 E12       30.21F
JOPLIN         CLOUDY    48  39  71 E8        30.17S
WEST PLAINS    CLOUDY    48  27  44 E7        30.26S

$$

IAZ060-094-KSZ022-034>040-054-083-096-NEZ052-066-093-211300-
...KANSAS...SOUTHEAST NEBRASKA AND IOWA...

CITY           SKY/WX    TMP DP  RH WIND       PRES   REMARKS
TOPEKA         LGT RAIN  47  42  83 CALM      30.25R
6HR MIN TEMP:  47; 6HR MAX TEMP:  55; 6HR PCP:  0.02;

MANHATTAN      LGT RAIN  45  41  86 E9        30.21F
EMPORIA        LGT RAIN  44  38  79 E8        30.20F
CHANUTE        RAIN      48  40  73 NW6       30.20R
WICHITA        RAIN      47  45  93 E13       30.11F
OMAHA          CLOUDY    50  26  39 VRB5      30.28F
LINCOLN        CLOUDY    49  27  42 SE6       30.27R
FALLS CITY     LGT RAIN  46  32  58 SE7       30.28R
LAMONI         CLOUDY    44  27  51 NE7       30.32R
DES MOINES     CLOUDY    46  31  55 E9        30.36S

$$





USA.gov is the U.S. government's official web portal to all federal, state and local government web resources and services.